KC3BHK-2 Weather Reports


Display with metric or nautical units.
time (UTC)temp
F
wind
direction
speed
MPH
gust
MPH
rain 1hr
in
rain 24hr
in
rain mn
in
humidity
%
barometer
mb
20260905161133 81 30 1.0 3.0 0.00 0.00 0.00
20260905160628 82 30 0.0 4.0 0.00 0.00 0.00
20260905160122 80 18 1.0 2.0 0.00 0.00 0.00
20260905155617 80 42 0.0 0.0 0.00 0.00 0.00
20260905155113 81 42 0.0 3.0 0.00 0.00 0.00
20260905154608 80 18 0.0 4.0 0.00 0.00 0.00
20260905154100 80 76 1.0 2.0 0.00 0.00 0.00
20260905153556 78 63 0.0 2.0 0.00 0.00 0.00
20260905153051 79 13 1.0 4.0 0.00 0.00 0.00
20260905152041 77 73 0.0 3.0 0.00 0.00 0.00
20260905151537 76 350 1.0 4.0 0.00 0.00 0.00
20260905151029 78 77 0.0 4.0 0.00 0.00 0.00
20260905150525 79 30 1.0 3.0 0.00 0.00 0.00
20260905150020 79 41 0.0 3.0 0.00 0.00 0.00
20260905145514 79 44 0.0 5.0 0.00 0.00 0.00
20260905145009 79 8 0.0 1.0 0.00 0.00 0.00
20260905144505 79 37 1.0 5.0 0.00 0.00 0.00
20260905143452 78 18 0.0 3.0 0.00 0.00 0.00
20260905142946 78 8 2.0 6.0 0.00 0.00 0.00
20260905142441 80 23 1.0 4.0 0.00 0.00 0.00
20260905141432 80 60 0.0 3.0 0.00 0.00 0.00
20260905140924 79 21 0.0 4.0 0.00 0.00 0.00
20260905140420 79 20 0.0 1.0 0.00 0.00 0.00
20260905135407 77 66 1.0 6.0 0.00 0.00 0.00
20260905134902 77 316 1.0 4.0 0.00 0.00 0.00
20260905134358 78 111 1.0 4.0 0.00 0.00 0.00
20260905133850 77 20 2.0 7.0 0.00 0.00 0.00
20260905133345 77 79 0.0 7.0 0.00 0.00 0.00
20260905132840 78 31 2.0 4.0 0.00 0.00 0.00
20260905132336 75 53 0.0 1.0 0.00 0.00 0.00
20260905131831 75 18 0.0 3.0 0.00 0.00 0.00
20260905131326 74 342 3.0 6.0 0.00 0.00 0.00
20260905130818 75 28 0.0 2.0 0.00 0.00 0.00
20260905130313 73 3 0.0 3.0 0.00 0.00 0.00
20260905125808 74 56 0.0 2.0 0.00 0.00 0.00
20260905125306 73 339 2.0 4.0 0.00 0.00 0.00
20260905124759 73 24 0.0 5.0 0.00 0.00 0.00
20260905124254 72 41 0.0 4.0 0.00 0.00 0.00
20260905123746 73 38 1.0 4.0 0.00 0.00 0.00
20260905123241 72 20 0.0 2.0 0.00 0.00 0.00
20260905122232 72 352 0.0 1.0 0.00 0.00 0.00
20260905121727 72 38 0.0 2.0 0.00 0.00 0.00
20260905121222 71 30 0.0 0.0 0.00 0.00 0.00
20260905120714 71 30 0.0 2.0 0.00 0.00 0.00
20260905115200 72 27 0.0 3.0 0.00 0.00 0.00
20260905114655 70 77 3.0 0.0 0.00 0.00 0.00
20260905114150 69 136 0.0 0.0 0.00 0.00 0.00
20260905113642 70 136 0.0 0.0 0.00 0.00 0.00
20260905113137 71 136 0.0 0.0 0.00 0.00 0.00
20260905112632 71 136 0.0 0.0 0.00 0.00 0.00
20260905112128 70 136 0.0 0.0 0.00 0.00 0.00
20260905111623 70 136 0.0 0.0 0.00 0.00 0.00
20260905111118 69 136 0.0 0.0 0.00 0.00 0.00
20260905110609 69 136 0.0 0.0 0.00 0.00 0.00
20260905105053 69 136 0.0 0.0 0.00 0.00 0.00
20260905104548 68 136 0.0 0.0 0.00 0.00 0.00
20260905104042 67 136 0.0 0.0 0.00 0.00 0.00
20260905103535 68 136 0.0 0.0 0.00 0.00 0.00
20260905103030 68 136 0.0 0.0 0.00 0.00 0.00
20260905102524 68 136 0.0 0.0 0.00 0.00 0.00
20260905102019 68 136 0.0 0.0 0.00 0.00 0.00
20260905101514 68 136 0.0 0.0 0.00 0.00 0.00
20260905101009 67 136 0.0 0.0 0.00 0.00 0.00
20260905100501 68 136 0.0 0.0 0.00 0.00 0.00
20260905095957 68 136 0.0 0.0 0.00 0.00 0.00
20260905095451 67 136 0.0 0.0 0.00 0.00 0.00
20260905094946 67 136 0.0 0.0 0.00 0.00 0.00
20260905094442 68 136 0.0 0.0 0.00 0.00 0.00
20260905093937 68 136 0.0 0.0 0.00 0.00 0.00
20260905093428 67 136 0.0 0.0 0.00 0.00 0.00
20260905092923 67 136 0.0 0.0 0.00 0.00 0.00
20260905092418 68 136 0.0 0.0 0.00 0.00 0.00
20260905091913 68 136 0.0 0.0 0.00 0.00 0.00
20260905091408 69 136 0.0 0.0 0.00 0.00 0.00
20260905090903 67 136 0.0 0.0 0.00 0.00 0.00
20260905090356 67 136 0.0 0.0 0.00 0.00 0.00
20260905085346 67 136 0.0 0.0 0.00 0.00 0.00
20260905084336 67 136 0.0 0.0 0.00 0.00 0.00
20260905083831 68 136 0.0 0.0 0.00 0.00 0.00
20260905083323 68 136 0.0 0.0 0.00 0.00 0.00
20260905082818 68 136 0.0 0.0 0.00 0.00 0.00
20260905082314 66 136 0.0 0.0 0.00 0.00 0.00
20260905081304 68 136 0.0 0.0 0.00 0.00 0.00
20260905080759 68 136 0.0 0.0 0.00 0.00 0.00
20260905080251 68 136 0.0 0.0 0.00 0.00 0.00
20260905075746 68 136 0.0 0.0 0.00 0.00 0.00
20260905075242 67 136 0.0 0.0 0.00 0.00 0.00
20260905074737 67 136 0.0 0.0 0.00 0.00 0.00
20260905074232 69 136 0.0 0.0 0.00 0.00 0.00
20260905073727 68 136 0.0 0.0 0.00 0.00 0.00
20260905073219 69 136 0.0 0.0 0.00 0.00 0.00
20260905072714 68 136 0.0 0.0 0.00 0.00 0.00
20260905072209 68 136 0.0 0.0 0.00 0.00 0.00
20260905071704 68 136 0.0 0.0 0.00 0.00 0.00
20260905071200 68 136 0.0 0.0 0.00 0.00 0.00
20260905070655 69 136 0.0 1.0 0.00 0.00 0.00
20260905070147 68 136 0.0 1.0 0.00 0.00 0.00
20260905065642 68 49 0.0 0.0 0.00 0.00 0.00
20260905065137 68 49 0.0 0.0 0.00 0.00 0.00
20260905064633 69 49 0.0 0.0 0.00 0.00 0.00
20260905064128 69 49 0.0 0.0 0.00 0.00 0.00
20260905063623 69 49 0.0 0.0 0.00 0.00 0.00
20260905063115 69 49 0.0 0.0 0.00 0.00 0.00
20260905062610 70 49 0.0 0.0 0.00 0.00 0.00
20260905062106 69 49 0.0 0.0 0.00 0.00 0.00
20260905061056 70 49 0.0 0.0 0.00 0.00 0.00
20260905060551 70 49 0.0 1.0 0.00 0.00 0.00
20260905060043 70 207 0.0 1.0 0.00 0.00 0.00
20260905055538 71 207 0.0 1.0 0.00 0.00 0.00
20260905055033 72 181 0.0 3.0 0.00 0.00 0.00
20260905054528 71 204 1.0 4.0 0.00 0.00 0.00
20260905054023 71 250 3.0 3.0 0.00 0.00 0.00
20260905053518 71 207 0.0 3.0 0.00 0.00 0.00
20260905052506 70 100 0.0 0.0 0.00 0.00 0.00
20260905052001 69 100 0.0 0.0 0.00 0.00 0.00
20260905051456 70 100 0.0 0.0 0.00 0.00 0.00
20260905045936 71 100 0.0 0.0 0.00 0.00 0.00
20260905045431 71 100 0.0 0.0 0.00 0.00 0.00
20260905044926 71 100 0.0 0.0 0.00 0.00 0.00
20260905044421 72 100 0.0 4.0 0.00 0.00 0.00
20260905043916 71 169 1.0 2.0 0.00 0.00 0.00
20260905043411 73 65 0.0 2.0 0.00 0.00 0.00
20260905042903 73 105 1.0 3.0 0.00 0.00 0.00
20260905042359 73 118 3.0 3.0 0.00 0.00 0.00
20260905041854 73 82 0.0 3.0 0.00 0.00 0.00
20260905040843 73 76 1.0 2.0 0.00 0.00 0.00
20260905040338 73 84 0.0 5.0 0.00 0.00 0.00
20260905035830 73 125 2.0 4.0 0.00 0.00 0.00
20260905035325 74 150 2.0 4.0 0.00 0.00 0.00
20260905034821 73 115 3.0 5.0 0.00 0.00 0.00
20260905034316 74 132 3.0 6.0 0.00 0.00 0.00
20260905033811 72 131 4.0 6.0 0.00 0.00 0.00
20260905033306 72 122 4.0 4.0 0.00 0.00 0.00
20260905032758 73 121 2.0 5.0 0.00 0.00 0.00
20260905032253 72 105 2.0 2.0 0.00 0.00 0.00
20260905031749 72 79 0.0 2.0 0.00 0.00 0.00
20260905031244 72 79 0.0 2.0 0.00 0.00 0.00
20260905030738 73 125 0.0 1.0 0.00 0.00 0.00
20260905030233 73 135 0.0 4.0 0.00 0.00 0.00
20260905025725 72 180 2.0 4.0 0.00 0.00 0.00
20260905025221 72 207 3.0 5.0 0.00 0.00 0.00
20260905024716 72 231 4.0 5.0 0.00 0.00 0.00
20260905023706 71 208 3.0 4.0 0.00 0.00 0.00
20260905023201 72 193 2.0 4.0 0.00 0.00 0.00
20260905022653 72 200 3.0 4.0 0.00 0.00 0.00
20260905022148 71 203 2.0 3.0 0.00 0.00 0.00
20260905021643 71 259 0.0 0.0 0.00 0.00 0.00
20260905021259 71 259 0.0 0.0 0.00 0.00 0.00
20260905021138 71 259 0.0 0.0 0.00 0.00 0.00
20260905020633 71 259 0.0 0.0 0.00 0.00 0.00
20260905015621 71 259 0.0 0.0 0.00 0.00 0.00
20260905015116 73 259 0.0 0.0 0.00 0.00 0.00
20260905014611 72 259 0.0 0.0 0.00 0.00 0.00
20260905014106 71 259 0.0 0.0 0.00 0.00 0.00
20260905013602 73 259 0.0 0.0 0.00 0.00 0.00
20260905013057 73 259 0.0 0.0 0.00 0.00 0.00
20260905012548 72 259 0.0 0.0 0.00 0.00 0.00
20260905012042 73 259 0.0 0.0 0.00 0.00 0.00
20260905011537 74 259 0.0 0.0 0.00 0.00 0.00
20260905011032 73 259 0.0 0.0 0.00 0.00 0.00
20260905010528 74 259 0.0 0.0 0.00 0.00 0.00
20260905010230 76 270 3.0 6.0 0.00 0.00 0.00
20260905010023 76 259 0.0 0.0 0.00 0.00 0.00
20260905005515 74 259 0.0 3.0 0.00 0.00 0.00
20260905004505 76 270 3.0 6.0 0.00 0.00 0.00
20260905004000 75 263 4.0 6.0 0.00 0.00 0.00
20260905002951 75 273 7.0 6.0 0.00 0.00 0.00
20260905002443 76 228 4.0 4.0 0.00 0.00 0.00
20260905001938 76 228 2.0 4.0 0.00 0.00 0.00
20260905001433 75 172 0.0 0.0 0.00 0.00 0.00
20260905000929 75 75 0.0 3.0 0.00 0.00 0.00
20260905000424 77 75 0.0 0.0 0.00 0.00 0.00
20260904235919 76 259 0.0 2.0 0.00 0.00 0.00
20260904235411 77 259 0.0 2.0 0.00 0.00 0.00
20260904234401 76 203 2.0 4.0 0.00 0.00 0.00
20260904233857 77 218 2.0 5.0 0.00 0.00 0.00
20260904233352 76 197 2.0 5.0 0.00 0.00 0.00
20260904232847 77 228 4.0 6.0 0.00 0.00 0.00
20260904232339 77 212 4.0 8.0 0.00 0.00 0.00
20260904231835 79 245 5.0 7.0 0.00 0.00 0.00
20260904225815 80 255 5.0 10.0 0.00 0.00 0.00
20260904225308 80 260 6.0 8.0 0.00 0.00 0.00
20260904224803 80 267 3.0 8.0 0.00 0.00 0.00
20260904224600 81 283 5.0 5.0 0.00 0.00 0.00
20260904224258 80 269 5.0 7.0 0.00 0.00 0.00
20260904223753 80 226 6.0 8.0 0.00 0.00 0.00
20260904223249 81 283 5.0 5.0 0.00 0.00 0.00
20260904222744 80 221 3.0 4.0 0.00 0.00 0.00
20260904222236 81 242 3.0 5.0 0.00 0.00 0.00
20260904221732 82 207 2.0 5.0 0.00 0.00 0.00
20260904221227 82 197 3.0 5.0 0.00 0.00 0.00
20260904220721 82 221 3.0 4.0 0.00 0.00 0.00
20260904220216 83 177 2.0 3.0 0.00 0.00 0.00
20260904215711 82 165 1.0 3.0 0.00 0.00 0.00
20260904215204 83 142 0.0 0.0 0.00 0.00 0.00
20260904214659 82 142 0.0 2.0 0.00 0.00 0.00
20260904214153 84 160 1.0 3.0 0.00 0.00 0.00
20260904213143 83 104 0.0 0.0 0.00 0.00 0.00
20260904212638 85 104 0.0 0.0 0.00 0.00 0.00
20260904212131 83 104 0.0 1.0 0.00 0.00 0.00
20260904211626 83 129 0.0 1.0 0.00 0.00 0.00
20260904211121 83 165 1.0 2.0 0.00 0.00 0.00
20260904210616 82 215 1.0 4.0 0.00 0.00 0.00
20260904210112 83 242 2.0 4.0 0.00 0.00 0.00
20260904205607 81 240 4.0 3.0 0.00 0.00 0.00
20260904205059 82 218 2.0 3.0 0.00 0.00 0.00
20260904204049 80 228 2.0 3.0 0.00 0.00 0.00
20260904203545 79 217 2.0 2.0 0.00 0.00 0.00
20260904203040 81 139 1.0 2.0 0.00 0.00 0.00
20260904202535 80 172 2.0 1.0 0.00 0.00 0.00
20260904202027 80 87 0.0 0.0 0.00 0.00 0.00
20260904201522 81 87 0.0 0.0 0.00 0.00 0.00
20260904201018 82 87 0.0 0.0 0.00 0.00 0.00
20260904200008 83 87 0.0 1.0 0.00 0.00 0.00
20260904195504 85 87 0.0 2.0 0.00 0.00 0.00
20260904194956 85 30 0.0 0.0 0.00 0.00 0.00
20260904194451 85 30 0.0 2.0 0.00 0.00 0.00
20260904193946 86 30 0.0 2.0 0.00 0.00 0.00
20260904193442 86 309 1.0 4.0 0.00 0.00 0.00
20260904192937 87 245 1.0 5.0 0.00 0.00 0.00
20260904192432 89 288 2.0 6.0 0.00 0.00 0.00
20260904191924 89 263 1.0 8.0 0.00 0.00 0.00
20260904191419 89 30 2.0 9.0 0.00 0.00 0.00
20260904190914 89 271 4.0 5.0 0.00 0.00 0.00
20260904185903 91 188 1.0 2.0 0.00 0.00 0.00
20260904185358 92 188 0.0 3.0 0.00 0.00 0.00
20260904184849 94 10 0.0 5.0 0.00 0.00 0.00
20260904183838 94 288 0.0 5.0 0.00 0.00 0.00
20260904183333 93 293 3.0 6.0 0.00 0.00 0.00
20260904182828 91 297 1.0 12.0 0.00 0.00 0.00
20260904182323 91 271 2.0 9.0 0.00 0.00 0.00
20260904181815 92 257 7.0 6.0 0.00 0.00 0.00
20260904181310 93 266 4.0 9.0 0.00 0.00 0.00
20260904180805 93 293 2.0 12.0 0.00 0.00 0.00
20260904180301 93 298 5.0 9.0 0.00 0.00 0.00
20260904175756 93 283 3.0 10.0 0.00 0.00 0.00
20260904175251 93 273 6.0 8.0 0.00 0.00 0.00
20260904174740 92 347 1.0 5.0 0.00 0.00 0.00
20260904174235 91 280 4.0 12.0 0.00 0.00 0.00
20260904173730 88 354 1.0 12.0 0.00 0.00 0.00
20260904173226 88 314 4.0 14.0 0.00 0.00 0.00
20260904172721 88 253 7.0 12.0 0.00 0.00 0.00
20260904172216 89 266 4.0 12.0 0.00 0.00 0.00
20260904171708 90 278 6.0 8.0 0.00 0.00 0.00
20260904171203 90 352 1.0 6.0 0.00 0.00 0.00
20260904170658 90 276 5.0 9.0 0.00 0.00 0.00
20260904170154 90 309 4.0 9.0 0.00 0.00 0.00
20260904165649 90 302 6.0 9.0 0.00 0.00 0.00
20260904165144 89 274 0.0 10.0 0.00 0.00 0.00
20260904164636 88 262 1.0 9.0 0.00 0.00 0.00
20260904164131 89 293 5.0 10.0 0.00 0.00 0.00
20260904163626 89 14 3.0 11.0 0.00 0.00 0.00
20260904163121 89 267 8.0 5.0 0.00 0.00 0.00
20260904162617 88 18 1.0 7.0 0.00 0.00 0.00
20260904162112 88 219 1.0 8.0 0.00 0.00 0.00
20260904161603 86 283 5.0 11.0 0.00 0.00 0.00